| Temperature (°F) | Max | Average | Min |
|---|---|---|---|
| Max Temperature | 72 | 53.31 | 27 |
| Avg Temperature | 60.08 | 43.51 | 24.2 |
| Min Temperature | 55 | 35.94 | 19 |
| Precipitation (in) | Max | Average | Min | Sum |
|---|---|---|---|---|
| Precipitation | 4.54 | 0.43 | 0 | 13.77 |
| Dew Point (°F) | Max | Average | Min |
|---|---|---|---|
| Dew Point | 57.98 | 35.45 | 17.4 |
| Wind (mph) | Max | Average | Min |
|---|---|---|---|
| Wind | 35 | 18.88 | 8 |
| Gust Wind | 49 | 28.36 | 17 |
| Sea Level Pressure (in) | Max | Average | Min |
|---|---|---|---|
| Sea Level Pressure | 29.07 | 28.68 | 28.11 |
| Date | Temp High/Low | Dew Pt High/Low | Humidity | Wind | Max Wind | Wind Gust | Pressure | Precip. | Condition |
|---|---|---|---|---|---|---|---|---|---|
| 10/1/2019 | 72 °F / 53 °F | 68 °F / 52 °F | 93 % | 24 mph | - | 28.63 in | 5.45 in | ||
| 10/2/2019 | 54 °F / 50 °F | 53 °F / 49 °F | 95 % | 15 mph | - | 28.68 in | 1.2 in | ||
| 10/3/2019 | 54 °F / 43 °F | 53 °F / 37 °F | 85 % | 18 mph | - | 28.84 in | 0 in | ||
| 10/4/2019 | 56 °F / 43 °F | 44 °F / 36 °F | 71 % | 13 mph | - | 29.04 in | 0 in | ||
| 10/5/2019 | 60 °F / 48 °F | 56 °F / 42 °F | 89 % | 24 mph | - | 28.62 in | 2.63 in | ||
| 10/6/2019 | 65 °F / 45 °F | 43 °F / 36 °F | 62 % | 21 mph | - | 28.78 in | 0 in | ||
| 10/7/2019 | 67 °F / 42 °F | 42 °F / 35 °F | 60 % | 14 mph | - | 28.87 in | 0 in | ||
| 10/8/2019 | 69 °F / 40 °F | 43 °F / 37 °F | 64 % | 25 mph | - | 28.75 in | 0 in | ||
| 10/9/2019 | 70 °F / 47 °F | 50 °F / 42 °F | 66 % | 23 mph | - | 28.68 in | 0.28 in | ||
| 10/10/2019 | 61 °F / 39 °F | 60 °F / 37 °F | 93 % | 21 mph | - | 28.53 in | 1.16 in | ||
| 10/11/2019 | 40 °F / 34 °F | 38 °F / 25 °F | 82 % | 26 mph | - | 28.6 in | 0.03 in | ||
| 10/12/2019 | 37 °F / 28 °F | 32 °F / 22 °F | 80 % | 25 mph | - | 28.51 in | 0.04 in | ||
| 10/13/2019 | 43 °F / 34 °F | 31 °F / 29 °F | 75 % | 21 mph | - | 28.57 in | 0 in | ||
| 10/14/2019 | 57 °F / 27 °F | 36 °F / 24 °F | 68 % | 14 mph | - | 28.69 in | 0 in | ||
| 10/15/2019 | 54 °F / 36 °F | 40 °F / 34 °F | 74 % | 24 mph | - | 28.61 in | 0 in | ||
| 10/16/2019 | 47 °F / 37 °F | 37 °F / 32 °F | 78 % | 17 mph | - | 28.8 in | 0 in | ||
| 10/17/2019 | 59 °F / 28 °F | 39 °F / 26 °F | 75 % | 12 mph | - | 28.7 in | 0 in | ||
| 10/18/2019 | 70 °F / 43 °F | 44 °F / 38 °F | 62 % | 29 mph | - | 28.45 in | 0 in | ||
| 10/19/2019 | 65 °F / 37 °F | 48 °F / 34 °F | 72 % | 14 mph | - | 28.44 in | 0.04 in | ||
| 10/20/2019 | 64 °F / 32 °F | 45 °F / 30 °F | 68 % | 17 mph | - | 28.53 in | 0.01 in | ||
| 10/21/2019 | 54 °F / 42 °F | 51 °F / 38 °F | 90 % | 29 mph | - | 28.06 in | 2.64 in | ||
| 10/22/2019 | 50 °F / 37 °F | 39 °F / 29 °F | 74 % | 35 mph | - | 28.31 in | 0.12 in | ||
| 10/23/2019 | 45 °F / 29 °F | 35 °F / 26 °F | 84 % | 15 mph | - | 28.66 in | 0.17 in | ||
| 10/24/2019 | 46 °F / 26 °F | 33 °F / 23 °F | 76 % | 15 mph | - | 29.01 in | 0 in | ||
| 10/25/2019 | 52 °F / 21 °F | 31 °F / 19 °F | 73 % | 15 mph | - | 28.97 in | 0 in | ||
| 10/26/2019 | 50 °F / 27 °F | 33 °F / 24 °F | 70 % | 15 mph | - | 28.59 in | 0 in | ||
| 10/27/2019 | 44 °F / 27 °F | 37 °F / 25 °F | 79 % | 17 mph | - | 28.65 in | 0 in | ||
| 10/28/2019 | 37 °F / 26 °F | 26 °F / 14 °F | 69 % | 15 mph | - | 28.83 in | 0 in | ||
| 10/29/2019 | 41 °F / 22 °F | 26 °F / 19 °F | 72 % | 10 mph | - | 28.94 in | 0 in | ||
| 10/30/2019 | 32 °F / 27 °F | 22 °F / 14 °F | 60 % | 14 mph | - | 28.99 in | 0 in | ||
| 10/31/2019 | 36 °F / 19 °F | 20 °F / 15 °F | 70 % | 17 mph | - | 28.8 in | 0 in |